owner,sensor,date,latitude,longitude,vertical_datum,direction_of_sea_water_velocity,sea_water_speed,upward_sea_water_velocity,qcFlag 
TABS,ioos:station:wmo:42045:1,2002-07-01T00:00:00Z,26.2168,-96.4998,2.0,30.62736015,16.35095716,-99999.0,'11111222,11111222,99999999' 
TABS,ioos:station:wmo:42045:1,2002-07-01T01:30:00Z,26.2168,-96.4998,2.0,50.22104038,13.83182562,-99999.0,'11111222,11111222,99999999' 
TABS,ioos:station:wmo:42045:1,2002-07-01T02:00:00Z,26.2168,-96.4998,2.0,56.73726393,14.8774729,-99999.0,'11111222,11111222,99999999' 
TABS,ioos:station:wmo:42045:1,2002-07-01T02:30:00Z,26.2168,-96.4998,2.0,65.17250531,12.97963405,-99999.0,'11111222,11111222,99999999' 
TABS,ioos:station:wmo:42045:1,2002-07-01T13:00:00Z,26.2168,-96.4998,2.0,17.44441365,21.21573001,-99999.0,'11111222,11111222,99999999' 
TABS,ioos:station:wmo:42045:1,2002-07-01T13:30:00Z,26.2168,-96.4998,2.0,15.69289252,22.73751526,-99999.0,'11111222,11111222,99999999' 
TABS,ioos:station:wmo:42045:1,2002-07-01T14:00:00Z,26.2168,-96.4998,2.0,23.40950893,23.55915958,-99999.0,'11111222,11111222,99999999' 
TABS,ioos:station:wmo:42045:1,2002-07-01T14:30:00Z,26.2168,-96.4998,2.0,19.89446001,22.59864155,-99999.0,'11111222,11111222,99999999' 
TABS,ioos:station:wmo:42045:1,2002-07-01T15:00:00Z,26.2168,-96.4998,2.0,17.97204609,21.52000232,-99999.0,'11111222,11111222,99999999' 
TABS,ioos:station:wmo:42045:1,2002-07-01T16:00:00Z,26.2168,-96.4998,2.0,23.07018081,25.16231508,-99999.0,'11111222,11111222,99999999' 
TABS,ioos:station:wmo:42045:1,2002-07-01T16:30:00Z,26.2168,-96.4998,2.0,31.32094028,26.97039117,-99999.0,'11111222,11111222,99999999' 
TABS,ioos:station:wmo:42045:1,2002-07-01T17:00:00Z,26.2168,-96.4998,2.0,25.06601493,26.15305909,-99999.0,'11111222,11111222,99999999' 
TABS,ioos:station:wmo:42045:1,2002-07-01T17:30:00Z,26.2168,-96.4998,2.0,25.45459914,27.68772291,-99999.0,'11111222,11111222,99999999' 
TABS,ioos:station:wmo:42045:1,2002-07-01T18:00:00Z,26.2168,-96.4998,2.0,34.65118173,26.29371408,-99999.0,'11111222,11111222,99999999' 
TABS,ioos:station:wmo:42045:1,2002-07-01T19:00:00Z,26.2168,-96.4998,2.0,38.84508524,29.47951323,-99999.0,'11111222,11111222,99999999' 
TABS,ioos:station:wmo:42045:1,2002-07-01T19:30:00Z,26.2168,-96.4998,2.0,41.64655832,29.49443337,-99999.0,'11111222,11111222,99999999' 
TABS,ioos:station:wmo:42045:1,2002-07-01T20:00:00Z,26.2168,-96.4998,2.0,36.28651608,31.22561929,-99999.0,'11111222,11111222,99999999' 
TABS,ioos:station:wmo:42045:1,2002-07-01T20:30:00Z,26.2168,-96.4998,2.0,42.01160327,26.31187185,-99999.0,'11111222,11111222,99999999' 
TABS,ioos:station:wmo:42045:1,2002-07-01T21:00:00Z,26.2168,-96.4998,2.0,43.84173838,27.63230899,-99999.0,'11111222,11111222,99999999' 
TABS,ioos:station:wmo:42045:1,2002-07-01T22:00:00Z,26.2168,-96.4998,2.0,44.74963406,25.88035548,-99999.0,'11111222,11111222,99999999' 
TABS,ioos:station:wmo:42045:1,2002-07-01T22:30:00Z,26.2168,-96.4998,2.0,47.58398489,24.62528172,-99999.0,'11111222,11111222,99999999' 
TABS,ioos:station:wmo:42045:1,2002-07-01T23:00:00Z,26.2168,-96.4998,2.0,43.34196692,24.68129048,-99999.0,'11111222,11111222,99999999' 
TABS,ioos:station:wmo:42045:1,2002-07-01T23:30:00Z,26.2168,-96.4998,2.0,45.80101735,22.7639913,-99999.0,'11111222,11111222,99999999' 
TABS,ioos:station:wmo:42045:1,2002-07-02T00:00:00Z,26.2168,-96.4998,2.0,40.24227853,23.18815215,-99999.0,'11111222,11111222,99999999' 
TABS,ioos:station:wmo:42045:1,2002-07-02T01:00:00Z,26.2168,-96.4998,2.0,43.43905209,22.06284886,-99999.0,'11111222,11111222,99999999' 
TABS,ioos:station:wmo:42045:1,2002-07-02T01:30:00Z,26.2168,-96.4998,2.0,42.18691634,16.85652693,-99999.0,'11111222,11111222,99999999' 
TABS,ioos:station:wmo:42045:1,2002-07-02T02:00:00Z,26.2168,-96.4998,2.0,47.34845305,11.2170629,-99999.0,'11111222,11111222,99999999' 
TABS,ioos:station:wmo:42045:1,2002-07-02T02:30:00Z,26.2168,-96.4998,2.0,51.93123956,15.29334823,-99999.0,'11111222,11111222,99999999' 
TABS,ioos:station:wmo:42045:1,2002-07-02T03:00:00Z,26.2168,-96.4998,2.0,46.16613878,15.98392317,-99999.0,'11111222,11111222,99999999' 
TABS,ioos:station:wmo:42045:1,2002-07-02T04:00:00Z,26.2168,-96.4998,2.0,34.85847685,15.09930462,-99999.0,'11111222,11111222,99999999' 
TABS,ioos:station:wmo:42045:1,2002-07-02T04:30:00Z,26.2168,-96.4998,2.0,30.44420777,17.58447326,-99999.0,'11111222,11111222,99999999' 
TABS,ioos:station:wmo:42045:1,2002-07-02T05:00:00Z,26.2168,-96.4998,2.0,35.78984387,14.5345829,-99999.0,'11111222,11111222,99999999' 
TABS,ioos:station:wmo:42045:1,2002-07-02T05:30:00Z,26.2168,-96.4998,2.0,28.79355461,12.99691117,-99999.0,'11111222,11111222,99999999' 
TABS,ioos:station:wmo:42045:1,2002-07-02T06:00:00Z,26.2168,-96.4998,2.0,32.58654699,14.11141736,-99999.0,'11111222,11111222,99999999' 
TABS,ioos:station:wmo:42045:1,2002-07-02T07:00:00Z,26.2168,-96.4998,2.0,22.60956328,12.64153867,-99999.0,'11111222,11111222,99999999' 
TABS,ioos:station:wmo:42045:1,2002-07-02T07:30:00Z,26.2168,-96.4998,2.0,20.05854295,14.95725242,-99999.0,'11111222,11111222,99999999' 
TABS,ioos:station:wmo:42045:1,2002-07-02T08:00:00Z,26.2168,-96.4998,2.0,14.99618953,21.1399456,-99999.0,'11111222,11111222,99999999' 
TABS,ioos:station:wmo:42045:1,2002-07-02T08:30:00Z,26.2168,-96.4998,2.0,17.99477995,21.39660253,-99999.0,'11111222,11111222,99999999' 
TABS,ioos:station:wmo:42045:1,2002-07-02T09:00:00Z,26.2168,-96.4998,2.0,19.18552876,22.21374349,-99999.0,'11111222,11111222,99999999' 
TABS,ioos:station:wmo:42045:1,2002-07-02T10:00:00Z,26.2168,-96.4998,2.0,14.9792894,24.7613893,-99999.0,'11111222,11111222,99999999' 
TABS,ioos:station:wmo:42045:1,2002-07-02T10:30:00Z,26.2168,-96.4998,2.0,20.034665,25.71617584,-99999.0,'11111222,11111222,99999999' 
TABS,ioos:station:wmo:42045:1,2002-07-02T11:00:00Z,26.2168,-96.4998,2.0,18.6388073,12.45312812,-99999.0,'11111222,11111222,99999999' 
TABS,ioos:station:wmo:42045:1,2002-07-02T11:30:00Z,26.2168,-96.4998,2.0,23.77944165,16.19485412,-99999.0,'11111222,11111222,99999999' 
TABS,ioos:station:wmo:42045:1,2002-07-02T12:00:00Z,26.2168,-96.4998,2.0,22.86273443,23.06174538,-99999.0,'11111222,11111222,99999999' 
TABS,ioos:station:wmo:42045:1,2002-07-02T13:00:00Z,26.2168,-96.4998,2.0,26.55049701,17.42791439,-99999.0,'11111222,11111222,99999999' 
TABS,ioos:station:wmo:42045:1,2002-07-02T13:30:00Z,26.2168,-96.4998,2.0,29.41659645,18.60923695,-99999.0,'11111222,11111222,99999999' 
TABS,ioos:station:wmo:42045:1,2002-07-02T14:00:00Z,26.2168,-96.4998,2.0,30.23316509,17.61605234,-99999.0,'11111222,11111222,99999999' 
TABS,ioos:station:wmo:42045:1,2002-07-02T14:30:00Z,26.2168,-96.4998,2.0,28.35090431,20.9531883,-99999.0,'11111222,11111222,99999999' 
TABS,ioos:station:wmo:42045:1,2002-07-02T15:00:00Z,26.2168,-96.4998,2.0,21.46982343,20.8465081,-99999.0,'11111222,11111222,99999999' 
TABS,ioos:station:wmo:42045:1,2002-07-02T16:00:00Z,26.2168,-96.4998,2.0,27.52761167,19.17027908,-99999.0,'11111222,11111222,99999999' 
TABS,ioos:station:wmo:42045:1,2002-07-02T16:30:00Z,26.2168,-96.4998,2.0,20.29081366,20.21439339,-99999.0,'11111222,11111222,99999999' 
TABS,ioos:station:wmo:42045:1,2002-07-02T17:00:00Z,26.2168,-96.4998,2.0,25.83690427,18.9991684,-99999.0,'11111222,11111222,99999999' 
TABS,ioos:station:wmo:42045:1,2002-07-02T17:30:00Z,26.2168,-96.4998,2.0,33.16629306,19.41254491,-99999.0,'11111222,11111222,99999999' 
TABS,ioos:station:wmo:42045:1,2002-07-02T18:00:00Z,26.2168,-96.4998,2.0,18.00818186,21.21947219,-99999.0,'11111222,11111222,99999999' 
TABS,ioos:station:wmo:42045:1,2002-07-02T19:00:00Z,26.2168,-96.4998,2.0,38.97763964,26.75610024,-99999.0,'11111222,11111222,99999999' 
TABS,ioos:station:wmo:42045:1,2002-07-02T19:30:00Z,26.2168,-96.4998,2.0,43.99642995,20.1839243,-99999.0,'11111222,11111222,99999999' 
TABS,ioos:station:wmo:42045:1,2002-07-02T20:00:00Z,26.2168,-96.4998,2.0,31.28279099,23.1097923,-99999.0,'11111222,11111222,99999999' 
TABS,ioos:station:wmo:42045:1,2002-07-02T20:30:00Z,26.2168,-96.4998,2.0,23.37743372,28.63019385,-99999.0,'11111222,11111222,99999999' 
TABS,ioos:station:wmo:42045:1,2002-07-02T21:00:00Z,26.2168,-96.4998,2.0,50.57294887,29.85373009,-99999.0,'11111222,11111222,99999999' 
TABS,ioos:station:wmo:42045:1,2002-07-02T21:30:00Z,26.2168,-96.4998,2.0,57.62647001,28.36930912,-99999.0,'11111222,11111222,99999999' 
TABS,ioos:station:wmo:42045:1,2002-07-02T22:00:00Z,26.2168,-96.4998,2.0,57.61890462,23.91936663,-99999.0,'11111222,11111222,99999999' 
TABS,ioos:station:wmo:42045:1,2002-07-02T22:30:00Z,26.2168,-96.4998,2.0,50.45086389,25.75615655,-99999.0,'11111222,11111222,99999999' 
TABS,ioos:station:wmo:42045:1,2002-07-02T23:00:00Z,26.2168,-96.4998,2.0,52.4742547,27.77782029,-99999.0,'11111222,11111222,99999999' 
TABS,ioos:station:wmo:42045:1,2002-07-02T23:30:00Z,26.2168,-96.4998,2.0,47.06508184,25.11860267,-99999.0,'11111222,11111222,99999999' 
TABS,ioos:station:wmo:42045:1,2002-07-03T00:00:00Z,26.2168,-96.4998,2.0,43.26539592,24.76008481,-99999.0,'11111222,11111222,99999999' 
TABS,ioos:station:wmo:42045:1,2002-07-03T01:00:00Z,26.2168,-96.4998,2.0,45.99555552,23.60678716,-99999.0,'11111222,11111222,99999999' 
TABS,ioos:station:wmo:42045:1,2002-07-03T01:30:00Z,26.2168,-96.4998,2.0,48.9791369,20.58399864,-99999.0,'11111222,11111222,99999999' 
TABS,ioos:station:wmo:42045:1,2002-07-03T02:00:00Z,26.2168,-96.4998,2.0,47.15306298,15.05786173,-99999.0,'11111222,11111222,99999999' 
TABS,ioos:station:wmo:42045:1,2002-07-03T02:30:00Z,26.2168,-96.4998,2.0,54.27722287,23.37868474,-99999.0,'11111222,11111222,99999999' 
TABS,ioos:station:wmo:42045:1,2002-07-03T03:00:00Z,26.2168,-96.4998,2.0,50.37785695,22.40784907,-99999.0,'11111222,11111222,99999999' 
TABS,ioos:station:wmo:42045:1,2002-07-03T04:00:00Z,26.2168,-96.4998,2.0,50.71300139,17.40348528,-99999.0,'11111222,11111222,99999999' 
TABS,ioos:station:wmo:42045:1,2002-07-03T04:30:00Z,26.2168,-96.4998,2.0,36.67389733,16.94409927,-99999.0,'11111222,11111222,99999999' 
TABS,ioos:station:wmo:42045:1,2002-07-03T05:00:00Z,26.2168,-96.4998,2.0,31.24033461,16.35086542,-99999.0,'11111222,11111222,99999999' 
TABS,ioos:station:wmo:42045:1,2002-07-03T05:30:00Z,26.2168,-96.4998,2.0,34.92065591,15.75711903,-99999.0,'11111222,11111222,99999999' 
TABS,ioos:station:wmo:42045:1,2002-07-03T06:00:00Z,26.2168,-96.4998,2.0,31.85963351,16.23604016,-99999.0,'11111222,11111222,99999999' 
TABS,ioos:station:wmo:42045:1,2002-07-03T06:30:00Z,26.2168,-96.4998,2.0,24.07640292,14.83017532,-99999.0,'11111222,11111222,99999999' 
TABS,ioos:station:wmo:42045:1,2002-07-03T07:00:00Z,26.2168,-96.4998,2.0,21.75118257,16.89271145,-99999.0,'11111222,11111222,99999999' 
TABS,ioos:station:wmo:42045:1,2002-07-03T07:30:00Z,26.2168,-96.4998,2.0,20.01124057,15.75093965,-99999.0,'11111222,11111222,99999999' 
TABS,ioos:station:wmo:42045:1,2002-07-03T08:00:00Z,26.2168,-96.4998,2.0,14.25401745,18.52015389,-99999.0,'11111222,11111222,99999999' 
TABS,ioos:station:wmo:42045:1,2002-07-03T08:30:00Z,26.2168,-96.4998,2.0,0.598001652,18.21099119,-99999.0,'11111222,11111222,99999999' 
TABS,ioos:station:wmo:42045:1,2002-07-03T09:00:00Z,26.2168,-96.4998,2.0,356.9332352,20.55944795,-99999.0,'11111222,11111222,99999999' 
TABS,ioos:station:wmo:42045:1,2002-07-03T10:00:00Z,26.2168,-96.4998,2.0,4.440073968,20.28086044,-99999.0,'11111222,11111222,99999999' 
TABS,ioos:station:wmo:42045:1,2002-07-03T10:30:00Z,26.2168,-96.4998,2.0,4.923636322,18.7592164,-99999.0,'11111222,11111222,99999999' 
TABS,ioos:station:wmo:42045:1,2002-07-03T11:00:00Z,26.2168,-96.4998,2.0,5.455144761,11.15049775,-99999.0,'11111222,11111222,99999999' 
TABS,ioos:station:wmo:42045:1,2002-07-03T11:30:00Z,26.2168,-96.4998,2.0,14.21358298,21.17831202,-99999.0,'11111222,11111222,99999999' 
TABS,ioos:station:wmo:42045:1,2002-07-03T12:00:00Z,26.2168,-96.4998,2.0,6.086283822,18.67525903,-99999.0,'11111222,11111222,99999999' 
TABS,ioos:station:wmo:42045:1,2002-07-03T13:00:00Z,26.2168,-96.4998,2.0,11.74462327,18.61980129,-99999.0,'11111222,11111222,99999999' 
TABS,ioos:station:wmo:42045:1,2002-07-03T13:30:00Z,26.2168,-96.4998,2.0,18.52215848,16.65257337,-99999.0,'11111222,11111222,99999999' 
TABS,ioos:station:wmo:42045:1,2002-07-03T14:00:00Z,26.2168,-96.4998,2.0,351.5864516,11.13989677,-99999.0,'11111222,11111222,99999999' 
TABS,ioos:station:wmo:42045:1,2002-07-03T14:30:00Z,26.2168,-96.4998,2.0,6.420057561,19.85450327,-99999.0,'11111222,11111222,99999999' 
TABS,ioos:station:wmo:42045:1,2002-07-03T15:00:00Z,26.2168,-96.4998,2.0,10.0269814,24.69721442,-99999.0,'11111222,11111222,99999999' 
TABS,ioos:station:wmo:42045:1,2002-07-03T16:00:00Z,26.2168,-96.4998,2.0,14.89235284,27.27617459,-99999.0,'11111222,11111222,99999999' 
TABS,ioos:station:wmo:42045:1,2002-07-03T16:30:00Z,26.2168,-96.4998,2.0,15.83558565,27.19194734,-99999.0,'11111222,11111222,99999999' 
TABS,ioos:station:wmo:42045:1,2002-07-03T17:00:00Z,26.2168,-96.4998,2.0,25.82887568,23.66402544,-99999.0,'11111222,11111222,99999999' 
TABS,ioos:station:wmo:42045:1,2002-07-03T17:30:00Z,26.2168,-96.4998,2.0,31.72671561,26.79388363,-99999.0,'11111222,11111222,99999999' 
TABS,ioos:station:wmo:42045:1,2002-07-03T18:00:00Z,26.2168,-96.4998,2.0,38.82056388,27.85213816,-99999.0,'11111222,11111222,99999999' 
TABS,ioos:station:wmo:42045:1,2002-07-03T19:00:00Z,26.2168,-96.4998,2.0,40.18569091,29.15079759,-99999.0,'11111222,11111222,99999999' 
TABS,ioos:station:wmo:42045:1,2002-07-03T19:30:00Z,26.2168,-96.4998,2.0,41.47866009,27.62933224,-99999.0,'11111222,11111222,99999999' 
TABS,ioos:station:wmo:42045:1,2002-07-03T20:00:00Z,26.2168,-96.4998,2.0,37.4785697,26.73950822,-99999.0,'11111222,11111222,99999999' 
TABS,ioos:station:wmo:42045:1,2002-07-03T20:30:00Z,26.2168,-96.4998,2.0,45.00010523,21.8354574,-99999.0,'11111222,11111222,99999999' 
TABS,ioos:station:wmo:42045:1,2002-07-03T21:00:00Z,26.2168,-96.4998,2.0,43.54745641,23.15104533,-99999.0,'11111222,11111222,99999999' 
TABS,ioos:station:wmo:42045:1,2002-07-03T22:00:00Z,26.2168,-96.4998,2.0,43.92208859,21.04722309,-99999.0,'11111222,11111222,99999999' 
TABS,ioos:station:wmo:42045:1,2002-07-03T22:30:00Z,26.2168,-96.4998,2.0,45.94456382,20.16235353,-99999.0,'11111222,11111222,99999999' 
TABS,ioos:station:wmo:42045:1,2002-07-03T23:00:00Z,26.2168,-96.4998,2.0,47.63323681,19.85530911,-99999.0,'11111222,11111222,99999999' 
TABS,ioos:station:wmo:42045:1,2002-07-03T23:30:00Z,26.2168,-96.4998,2.0,48.97682691,17.23125358,-99999.0,'11111222,11111222,99999999' 
TABS,ioos:station:wmo:42045:1,2002-07-04T00:00:00Z,26.2168,-96.4998,2.0,49.43633566,14.90095635,-99999.0,'11111222,11111222,99999999' 
TABS,ioos:station:wmo:42045:1,2002-07-04T01:00:00Z,26.2168,-96.4998,2.0,42.80582471,13.11230338,-99999.0,'11111222,11111222,99999999' 
TABS,ioos:station:wmo:42045:1,2002-07-04T01:30:00Z,26.2168,-96.4998,2.0,46.56109312,11.94039363,-99999.0,'11111222,11111222,99999999' 
TABS,ioos:station:wmo:42045:1,2002-07-04T02:00:00Z,26.2168,-96.4998,2.0,46.46034805,9.711730021,-99999.0,'11133222,11111222,99999999' 
TABS,ioos:station:wmo:42045:1,2002-07-04T02:30:00Z,26.2168,-96.4998,2.0,49.16942233,11.37917835,-99999.0,'11111222,11111222,99999999' 
TABS,ioos:station:wmo:42045:1,2002-07-04T03:00:00Z,26.2168,-96.4998,2.0,46.43873456,12.39241704,-99999.0,'11111222,11111222,99999999' 
TABS,ioos:station:wmo:42045:1,2002-07-04T04:00:00Z,26.2168,-96.4998,2.0,67.01993216,9.297876102,-99999.0,'11133222,11111222,99999999' 
TABS,ioos:station:wmo:42045:1,2002-07-04T04:30:00Z,26.2168,-96.4998,2.0,35.60767785,5.719388079,-99999.0,'11133222,11111222,99999999' 
TABS,ioos:station:wmo:42045:1,2002-07-04T05:00:00Z,26.2168,-96.4998,2.0,82.62148141,7.008031107,-99999.0,'11133222,11111222,99999999' 
TABS,ioos:station:wmo:42045:1,2002-07-04T05:30:00Z,26.2168,-96.4998,2.0,96.48019533,4.518871541,-99999.0,'11133222,11111222,99999999' 
TABS,ioos:station:wmo:42045:1,2002-07-04T06:00:00Z,26.2168,-96.4998,2.0,101.9441493,1.594521872,-99999.0,'11133222,11111222,99999999' 
TABS,ioos:station:wmo:42045:1,2002-07-04T07:00:00Z,26.2168,-96.4998,2.0,43.07815376,1.054182147,-99999.0,'11133222,11111222,99999999' 
TABS,ioos:station:wmo:42045:1,2002-07-04T07:30:00Z,26.2168,-96.4998,2.0,25.21466826,2.276949714,-99999.0,'11133222,11111222,99999999' 
TABS,ioos:station:wmo:42045:1,2002-07-04T08:00:00Z,26.2168,-96.4998,2.0,285.8394403,3.700499966,-99999.0,'11133222,11111222,99999999' 
TABS,ioos:station:wmo:42045:1,2002-07-04T08:30:00Z,26.2168,-96.4998,2.0,317.1888931,8.887744371,-99999.0,'11133222,11111222,99999999' 
TABS,ioos:station:wmo:42045:1,2002-07-04T09:00:00Z,26.2168,-96.4998,2.0,322.1798968,10.12739354,-99999.0,'11111222,11111222,99999999' 
TABS,ioos:station:wmo:42045:1,2002-07-04T10:00:00Z,26.2168,-96.4998,2.0,315.4543129,13.38595159,-99999.0,'11111222,11111222,99999999' 
TABS,ioos:station:wmo:42045:1,2002-07-04T10:30:00Z,26.2168,-96.4998,2.0,322.0121576,15.98704476,-99999.0,'11111222,11111222,99999999' 
TABS,ioos:station:wmo:42045:1,2002-07-04T11:00:00Z,26.2168,-96.4998,2.0,306.3090285,8.984430978,-99999.0,'11133222,11111222,99999999' 
TABS,ioos:station:wmo:42045:1,2002-07-04T11:30:00Z,26.2168,-96.4998,2.0,317.2179456,15.53262695,-99999.0,'11111222,11111222,99999999' 
TABS,ioos:station:wmo:42045:1,2002-07-04T12:00:00Z,26.2168,-96.4998,2.0,316.3176837,20.29933004,-99999.0,'11111222,11111222,99999999' 
TABS,ioos:station:wmo:42045:1,2002-07-04T12:30:00Z,26.2168,-96.4998,2.0,318.4277213,23.41883857,-99999.0,'11111222,11111222,99999999' 
TABS,ioos:station:wmo:42045:1,2002-07-04T13:00:00Z,26.2168,-96.4998,2.0,317.1636738,23.41485212,-99999.0,'11111222,11111222,99999999' 
TABS,ioos:station:wmo:42045:1,2002-07-04T13:30:00Z,26.2168,-96.4998,2.0,317.7379391,23.83548825,-99999.0,'11111222,11111222,99999999' 
TABS,ioos:station:wmo:42045:1,2002-07-04T14:00:00Z,26.2168,-96.4998,2.0,317.8934916,25.63701426,-99999.0,'11111222,11111222,99999999' 
TABS,ioos:station:wmo:42045:1,2002-07-04T14:30:00Z,26.2168,-96.4998,2.0,313.4560243,28.33698996,-99999.0,'11111222,11111222,99999999' 
TABS,ioos:station:wmo:42045:1,2002-07-04T15:00:00Z,26.2168,-96.4998,2.0,316.9422742,28.79578441,-99999.0,'11111222,11111222,99999999' 
TABS,ioos:station:wmo:42045:1,2002-07-04T16:00:00Z,26.2168,-96.4998,2.0,325.0367925,26.33257488,-99999.0,'11111222,11111222,99999999' 
TABS,ioos:station:wmo:42045:1,2002-07-04T16:30:00Z,26.2168,-96.4998,2.0,330.6226735,25.15476098,-99999.0,'11111222,11111222,99999999' 
TABS,ioos:station:wmo:42045:1,2002-07-04T17:00:00Z,26.2168,-96.4998,2.0,5.763637864,25.8908787,-99999.0,'11111222,11111222,99999999' 
TABS,ioos:station:wmo:42045:1,2002-07-04T17:30:00Z,26.2168,-96.4998,2.0,5.109374756,26.16395421,-99999.0,'11111222,11111222,99999999' 
TABS,ioos:station:wmo:42045:1,2002-07-04T18:00:00Z,26.2168,-96.4998,2.0,0.745650772,26.90227686,-99999.0,'11111222,11111222,99999999' 
TABS,ioos:station:wmo:42045:1,2002-07-04T19:00:00Z,26.2168,-96.4998,2.0,2.698483942,25.27802603,-99999.0,'11111222,11111222,99999999' 
TABS,ioos:station:wmo:42045:1,2002-07-04T19:30:00Z,26.2168,-96.4998,2.0,2.15135447,26.10839903,-99999.0,'11111222,11111222,99999999' 
TABS,ioos:station:wmo:42045:1,2002-07-04T20:00:00Z,26.2168,-96.4998,2.0,7.013336707,26.04486322,-99999.0,'11111222,11111222,99999999' 
TABS,ioos:station:wmo:42045:1,2002-07-04T20:30:00Z,26.2168,-96.4998,2.0,9.5951903,25.55753509,-99999.0,'11111222,11111222,99999999' 
TABS,ioos:station:wmo:42045:1,2002-07-04T21:00:00Z,26.2168,-96.4998,2.0,9.035999965,24.5142122,-99999.0,'11111222,11111222,99999999' 
TABS,ioos:station:wmo:42045:1,2002-07-04T21:30:00Z,26.2168,-96.4998,2.0,14.9915495,24.00708645,-99999.0,'11111222,11111222,99999999' 
TABS,ioos:station:wmo:42045:1,2002-07-04T22:00:00Z,26.2168,-96.4998,2.0,12.13461767,25.21333972,-99999.0,'11111222,11111222,99999999' 
TABS,ioos:station:wmo:42045:1,2002-07-04T22:30:00Z,26.2168,-96.4998,2.0,17.34876609,25.18574398,-99999.0,'11111222,11111222,99999999' 
TABS,ioos:station:wmo:42045:1,2002-07-04T23:00:00Z,26.2168,-96.4998,2.0,13.01847415,25.39263673,-99999.0,'11111222,11111222,99999999' 
TABS,ioos:station:wmo:42045:1,2002-07-04T23:30:00Z,26.2168,-96.4998,2.0,23.40417561,23.43834892,-99999.0,'11111222,11111222,99999999' 
TABS,ioos:station:wmo:42045:1,2002-07-05T00:00:00Z,26.2168,-96.4998,2.0,20.20223901,22.35528573,-99999.0,'11111222,11111222,99999999' 
TABS,ioos:station:wmo:42045:1,2002-07-05T00:30:00Z,26.2168,-96.4998,2.0,23.85686342,20.34858717,-99999.0,'11111222,11111222,99999999' 
TABS,ioos:station:wmo:42045:1,2002-07-05T01:00:00Z,26.2168,-96.4998,2.0,25.27558645,18.87719524,-99999.0,'11111222,11111222,99999999' 
TABS,ioos:station:wmo:42045:1,2002-07-05T01:30:00Z,26.2168,-96.4998,2.0,20.27820155,18.09126308,-99999.0,'11111222,11111222,99999999' 
TABS,ioos:station:wmo:42045:1,2002-07-05T02:00:00Z,26.2168,-96.4998,2.0,6.133324935,10.38946582,-99999.0,'11111222,11111222,99999999' 
TABS,ioos:station:wmo:42045:1,2002-07-05T02:30:00Z,26.2168,-96.4998,2.0,8.861384362,13.63271433,-99999.0,'11111222,11111222,99999999' 
TABS,ioos:station:wmo:42045:1,2002-07-05T03:00:00Z,26.2168,-96.4998,2.0,7.242989738,16.89480689,-99999.0,'11111222,11111222,99999999' 
TABS,ioos:station:wmo:42045:1,2002-07-05T04:00:00Z,26.2168,-96.4998,2.0,1.266672815,13.57331573,-99999.0,'11111222,11111222,99999999' 
TABS,ioos:station:wmo:42045:1,2002-07-05T04:30:00Z,26.2168,-96.4998,2.0,355.3262761,16.44468607,-99999.0,'11111222,11111222,99999999' 
TABS,ioos:station:wmo:42045:1,2002-07-05T05:00:00Z,26.2168,-96.4998,2.0,349.1688331,14.79355603,-99999.0,'11111222,11111222,99999999' 
TABS,ioos:station:wmo:42045:1,2002-07-05T05:30:00Z,26.2168,-96.4998,2.0,356.2655042,18.72977576,-99999.0,'11111222,11111222,99999999' 
TABS,ioos:station:wmo:42045:1,2002-07-05T06:00:00Z,26.2168,-96.4998,2.0,354.6798191,18.11805729,-99999.0,'11111222,11111222,99999999' 
TABS,ioos:station:wmo:42045:1,2002-07-05T07:00:00Z,26.2168,-96.4998,2.0,352.182001,18.96629906,-99999.0,'11111222,11111222,99999999' 
TABS,ioos:station:wmo:42045:1,2002-07-05T07:30:00Z,26.2168,-96.4998,2.0,350.9402336,19.43243937,-99999.0,'11111222,11111222,99999999' 
TABS,ioos:station:wmo:42045:1,2002-07-05T08:00:00Z,26.2168,-96.4998,2.0,351.271828,22.07566307,-99999.0,'11111222,11111222,99999999' 
TABS,ioos:station:wmo:42045:1,2002-07-05T08:30:00Z,26.2168,-96.4998,2.0,347.3841508,20.64854959,-99999.0,'11111222,11111222,99999999' 
TABS,ioos:station:wmo:42045:1,2002-07-05T09:00:00Z,26.2168,-96.4998,2.0,350.6910455,24.60404032,-99999.0,'11111222,11111222,99999999' 
TABS,ioos:station:wmo:42045:1,2002-07-05T10:00:00Z,26.2168,-96.4998,2.0,343.5631799,24.49091668,-99999.0,'11111222,11111222,99999999' 
TABS,ioos:station:wmo:42045:1,2002-07-05T10:30:00Z,26.2168,-96.4998,2.0,346.7945509,25.43253232,-99999.0,'11111222,11111222,99999999' 
TABS,ioos:station:wmo:42045:1,2002-07-05T11:00:00Z,26.2168,-96.4998,2.0,347.3668781,11.29341844,-99999.0,'11111222,11111222,99999999' 
TABS,ioos:station:wmo:42045:1,2002-07-05T11:30:00Z,26.2168,-96.4998,2.0,350.7925931,22.56069591,-99999.0,'11111222,11111222,99999999' 
TABS,ioos:station:wmo:42045:1,2002-07-05T12:00:00Z,26.2168,-96.4998,2.0,353.3262199,26.15725521,-99999.0,'11111222,11111222,99999999' 
TABS,ioos:station:wmo:42045:1,2002-07-05T13:00:00Z,26.2168,-96.4998,2.0,4.37676045,27.7810079,-99999.0,'11111222,11111222,99999999' 
TABS,ioos:station:wmo:42045:1,2002-07-05T13:30:00Z,26.2168,-96.4998,2.0,9.22740165,26.44215574,-99999.0,'11111222,11111222,99999999' 
TABS,ioos:station:wmo:42045:1,2002-07-05T14:00:00Z,26.2168,-96.4998,2.0,4.436859494,26.62979722,-99999.0,'11111222,11111222,99999999' 
TABS,ioos:station:wmo:42045:1,2002-07-05T14:30:00Z,26.2168,-96.4998,2.0,11.28794496,25.34016772,-99999.0,'11111222,11111222,99999999' 
TABS,ioos:station:wmo:42045:1,2002-07-05T15:00:00Z,26.2168,-96.4998,2.0,11.34181407,24.81457838,-99999.0,'11111222,11111222,99999999' 
TABS,ioos:station:wmo:42045:1,2002-07-05T16:00:00Z,26.2168,-96.4998,2.0,11.06192458,30.33356722,-99999.0,'11111222,11111222,99999999' 
TABS,ioos:station:wmo:42045:1,2002-07-05T16:30:00Z,26.2168,-96.4998,2.0,7.166660307,30.86109039,-99999.0,'11111222,11111222,99999999' 
TABS,ioos:station:wmo:42045:1,2002-07-05T17:00:00Z,26.2168,-96.4998,2.0,5.475551552,31.0215409,-99999.0,'11111222,11111222,99999999' 